ALSAT 1 1 27559U 02054A 12035.55340206 .00000321 00000-0 61370-4 0 3570 2 27559 097.8100 251.1334 0023698 160.6572 199.5560 14.69816349491054 NIGERIASAT 1 1 27941U 03042C 12035.58474059 .00000584 00000-0 85495-4 0 4475 2 27941 097.8368 248.1179 0053868 119.7845 240.8750 14.78340173446618 UK-DMC 1 27942U 03042D 12035.54186968 .00000507 00000-0 78500-4 0 4420 2 27942 097.8257 252.1645 0065053 317.2656 042.3516 14.76115067446887 BILSAT 1 1 27943U 03042E 12035.40015099 .00000174 00000-0 42442-4 0 2752 2 27943 097.8181 241.1461 0011020 340.6731 019.4056 14.63161936446210 BEIJING 1 (TSINGHUA) 1 28890U 05043A 12035.55819416 .00000082 00000-0 26072-4 0 1622 2 28890 097.9219 266.5095 0015015 202.9020 157.1516 14.60284845334341 HJ-1A 1 33320U 08041A 12035.49055593 .00000470 00000-0 75409-4 0 7690 2 33320 097.8797 107.7228 0023885 221.9944 137.9444 14.75960348183780 HJ-1B 1 33321U 08041B 12035.45323179 .00000691 00000-0 10651-3 0 8250 2 33321 097.8828 107.9031 0041538 236.1050 123.6205 14.76002903183761 YAOGAN 4 1 33446U 08061A 12035.52224727 .00000063 00000-0 16786-4 0 5286 2 33446 097.8071 103.7753 0017817 167.5952 192.5698 14.74460289171058 YAOGAN 5 1 33456U 08064A 12035.52344924 .00007714 00000-0 23983-3 0 5277 2 33456 097.2725 108.8207 0009606 211.2803 272.8440 15.33560273174968 DEIMOS 1 1 35681U 09041A 12035.38604808 .00000278 00000-0 54870-4 0 7965 2 35681 098.0468 296.3818 0001573 095.5467 264.5878 14.69660023135083 DMC 2 1 35683U 09041C 12035.56369301 .00000243 00000-0 49038-4 0 8179 2 35683 098.0485 295.5994 0000840 095.0766 265.0534 14.69647679135035